Regional Weather Roundup
Issued by NWS

Home | Current Version | Previous Version | Text Only | Print | Product List | Glossary Off
Versions: 1 2 3 4 5 6 7 8 9 10 11 12 13 14 15 16 17 18 19 20 21 22 23 24 25 26 27 28 29 30 31 32 33 34 35 36 37 38 39 40 41 42 43 44 45 46 47 48 49 50

000
ASUS45 KTFX 020719
RWRMT
MONTANA HOURLY WEATHER ROUNDUP
NATIONAL WEATHER SERVICE GREAT FALLS MT
119 AM MDT THU OCT 2 2014

NOTE: "FAIR" INDICATES FEW OR NO CLOUDS BELOW 12000 FEET WITH NO
SIGNIFICANT WEATHER AND/OR OBSTRUCTIONS TO VISIBILITY.

* THESE STATIONS ARE NOT UNDER NWS QUALITY CONTROL. THEY DO NOT
   REPORT WEATHER SUCH AS PRECIPITATION OR FOG.

MTZ001>007-043-020800-
WEST OF THE DIVIDE
CITY           SKY/WX    TMP DP  RH WIND       PRES   REMARKS
KALISPELL      CLOUDY    50  36  59 S12       29.99S
MISSOULA       CLOUDY    46  37  71 CALM      30.07F
BUTTE          MOCLDY    37  27  67 NE3       30.09R
MULLAN PASS    CLOUDY    36  34  92 SW8       30.05F WCI  30
* ESSEX        N/A       43  40  89 SE1        N/A
* LINCOLN      N/A       43  29  58 SW5G18     N/A
* LOOKOUT PASS N/A       44  35  71 SE4G11     N/A
* POLSON       N/A       42  35  76 SE3        N/A
* RONAN APT    MOCLDY    48  36  63 SE5        N/A
* SEELEY LAKE  N/A       44  31  60 S1G6       N/A
* THOMP F APT  MOCLDY    34  21  59 NE2G7      N/A
* YAAK HILL    N/A       53  32  45 SW1G16     N/A
$$

MTZ008-052>055-020800-
SOUTHWEST MONTANA
CITY           SKY/WX    TMP DP  RH WIND       PRES   REMARKS
BOZEMAN        PTCLDY    32  28  85 SE9       30.07S WCI  24
DILLON         MOCLDY    43  28  56 S16       30.10R
W YELLOWSTONE  PTCLDY    32  28  85 SW12      30.14S WCI  23
* THREE FORKS  MOCLDY    39  39 100 N/A        N/A
* BOULDER HILL N/A       40  20  45 S1         N/A
* MONIDA PASS  N/A       30  23  75 E3         N/A
* RAYNOLDS PAS N/A       31  14  49 SW6        N/A   WCI  25
* WHITEHALL    N/A       42  28  58 W3G9       N/A
* WISE RIVER   N/A       40  26  57 NW7G15     N/A   WCI  35
$$

MTZ009>010-012-014-046-048-049-054-020800-
EAST SLOPES AND CENTRAL MONTANA
CITY           SKY/WX    TMP DP  RH WIND       PRES   REMARKS
CUT BANK       CLOUDY    39  34  82 N17       29.95R WCI  30
GREAT FALLS    PTCLDY    41  30  65 SW10      29.95R
HELENA         CLOUDY    50  28  43 W12       30.03R
MALMSTROM AFB  PTCLDY    45  32  60 SW16      29.97R
* CONRAD       PTCLDY    43  30  60 SW5        N/A
* DEARBORN     N/A       51  29  43 S6G19      N/A
* EAST GLACIER N/A       44  30  58 W10G19     N/A
* MONARCH      N/A       40  18  41 SW16G23    N/A   WCI  32
* PENDROY      N/A       44  26  49 NW13G19    N/A
* ROGERS PASS  N/A       40  27  60 SE13G22    N/A   WCI  32
* SAINT MARY   N/A       45  32  60 SW7G18     N/A
* SWEET GRASS  N/A       38  38 100 N15G20     N/A   WCI  29
* WHITE SULPH  N/A       43  25  49 SW6G14     N/A
$$

MTZ011-013-016-021-035-040-045-047-050-051-020800-
NORTH CENTRAL MONTANA
CITY           SKY/WX    TMP DP  RH WIND       PRES   REMARKS
HAVRE          MOCLDY    43  34  71 SW13      29.86R
LEWISTOWN      CLEAR     41  28  60 SW13      29.96R
* CHINOOK      PTCLDY    50  32  50 W13       29.85R
* FORT BENTON  CLEAR     45  30  56 SW9       29.92F
* CHESTER      N/A       41  28  60 NE5G14     N/A
* DENTON       N/A       39  29  67 SW9        N/A   WCI  33
* JUDITH GAP   N/A       35  23  62 W7         N/A   WCI  29
* LOMA         N/A       43  31  63 SW9        N/A
$$

MTZ017>020-022>027-061-062-020800-
NORTHEAST MONTANA
CITY           SKY/WX    TMP DP  RH WIND       PRES   REMARKS
GLASGOW        MOCLDY    48  37  66 SW6       29.83S
GLENDIVE       FAIR      39  36  89 S6        29.91S WCI  35
JORDAN         CLEAR     37  34  89 NW7       29.89S WCI  32
SIDNEY         CLEAR     39  37  93 S3        29.89S
WOLF POINT     CLOUDY    43  39  86 W5        29.85F
* BEAVER HILL  N/A       41  38  89 S9         N/A
* CIRCLE       N/A       42  38  86 N/A        N/A
* LINDSAY DVD  N/A       44  36  74 SW10       N/A
* NAVAJO       N/A       44  37  76 SW8        N/A
$$

MTZ028>042-056>058-020800-
SOUTHCENTRAL AND SOUTHEAST MONTANA
CITY           SKY/WX    TMP DP  RH WIND       PRES   REMARKS
BAKER          CLEAR     39  36  89 CALM      29.94S
BILLINGS       CLEAR     46  32  58 SW12      29.97R
LIVINGSTON     CLEAR     45  27  49 W12       30.01S
MILES CITY     MOCLDY    39  34  82 SE8       29.93S WCI  33
* LAUREL APT   CLEAR     43  28  56 N/A        N/A
* ROUNDUP APT  CLEAR     41  28  60 S6         N/A
* ALZADA       N/A       40  37  89 W3         N/A
* HYSHAM       N/A       45  29  54 W2         N/A
* LAME DEER    N/A       42  31  65 SW6        N/A
* REED POINT   N/A       49  26  41 W8G16      N/A
* ROSCOE HILL  N/A       42  13  31 W2G7       N/A
$$

REGIONAL REPORTS...DAKOTAS
CITY           SKY/WX    TMP DP  RH WIND       PRES   REMARKS
WILLISTON      PTCLDY    43  39  86 CALM      29.85F
DICKINSON      CLEAR     43  39  86 W5        29.88S
BEACH          N/A       39  39 100 SW8       29.92S WCI  33
CROSBY         CLEAR     43  43 100 SW9       29.82S
TIOGA          CLEAR     37  37 100 SW6       29.87S WCI  32
WATFORD CITY   CLEAR     41  41 100 SW7       29.85S
BISMARCK       MOCLDY    48  45  89 W6        29.88S
GRAND FORKS    FAIR      52  48  86 W7        29.78R
FARGO          CLEAR     54  48  80 SW8       29.82R
BUFFALO SD     CLEAR     41  36  82 NW8       29.88F
RAPID CITY     PTCLDY    41  39  93 CALM      29.99R
$$

REGIONAL REPORTS...WYOMING/IDAHO/WASHINGTON
CITY           SKY/WX    TMP DP  RH WIND       PRES   REMARKS
GILLETTE       CLEAR     39  36  89 SW9       30.01S WCI  33
SHERIDAN       MOCLDY    37  32  82 S6        29.99F WCI  32
CODY           CLEAR     48  27  44 W20G31    30.01S
YELLOWSTONE LA PTCLDY    27  25  92 CALM      30.18S
SALMON         CLEAR     34  28  79 CALM      30.15R
MULLAN PASS    CLOUDY    36  34  92 SW8       30.05S WCI  30
SAND POINT     PTCLDY    43  37  79 S3        30.00S
SPOKANE        CLOUDY    54  37  53 SW14      30.03R
$$

REGIONAL REPORTS...ALBERTA
CITY           SKY/WX    TMP DP  RH WIND       PRES   REMARKS
CALGARY        MOCLDY    36  30  79 N16G23    29.98R WCI  26
LETHBRIDGE     LGT RAIN  37  34  89 NW18G28   29.99R WCI  27
MEDICINE HAT   N/A       39  37  93 N7        29.94R WCI  34
EDMONTON       MOCLDY    34  23  64 NW18G28   29.98R WCI  23
WATERTON GATE  N/A       37  34  89 NE5        N/A   WCI  33
CARDSTON       N/A       36  36 100 N10G18     N/A   WCI  29
MILK RIVER     N/A       39  36  89 N10        N/A   WCI  32
$$

REGIONAL REPORTS...SASKATCHEWAN
CITY           SKY/WX    TMP DP  RH WIND       PRES   REMARKS
SWIFT CURRENT  CLOUDY    41  37  86 N22G28    29.79R
REGINA         FAIR      34  32  92 SW8       29.75F WCI  27
VAL MARIE      N/A       45  36  71 W9         N/A
ASSINIBOIA     N/A       46  37  71 S7         N/A
CORONACH       N/A       45  39  80 S9         N/A

$$




USA.gov is the U.S. government's official web portal to all federal, state and local government web resources and services.